Avoca, PA

6:58 AM EST on December 11, 2019 (GMT -0500)
Wilkes-Barre-Scranton International

Weather History for KAVP - November, 2019

Change the Weather History Date:

Thursday, November 21, 2019

  Actual Average Record
Temperature  
Mean Temperature 46 °F 40 °F  
Max Temperature 52 °F 47 °F 72 °F (1931)
Min Temperature 41 °F 32 °F 14 °F (1987)
Degree Days  
Heating Degree Days 18 25  
Month to date heating degree days 560 463  
Since 1 July heating degree days 882 1066  
Cooling Degree Days 0 0  
Month to date cooling degree days 0 0  
Year to date cooling degree days 846 580  
Moisture  
Dew Point 31 °F    
Average Humidity 58    
Maximum Humidity 70    
Minimum Humidity 44    
Precipitation  
Precipitation T in 0.11 in 1.33 in (1954)
Month to date precipitation 0.76 2.19  
Year to date precipitation 45.99 34.63  
Sea Level Pressure  
Sea Level Pressure 30.12 in    
Wind  
Wind Speed 6 mph ()    
Max Wind Speed 14 mph    
Max Gust Speed 19 mph    
Visibility 9.1 miles    
Events      
T = Trace of Precipitation, MM = Missing Value Source: Averaged Metar Reports

Daily Weather History Graph

Daily Weather History Graph

Search for Another Location

Airport or City:

Astronomy

Nov. 21, 2019 Rise Set
Actual Time 6:57 AM EST 4:39 PM EST
Civil Twilight 6:27 AM EST 5:09 PM EST
Nautical Twilight 5:54 AM EST 5:42 PM EST
Astronomical Twilight 5:21 AM EST 6:15 PM EST
Moon 12:46 AM EST (11/21) 2:11 PM EST (11/21)
Length of Visible Light 10h 41m
Length of Day
9h 41m
Waning Crescent, 30% of the Moon is Illuminated
Nov 21
Waning Crescent
Nov 26
New
Dec 4
First Quarter
Dec 12
Full
Dec 18
Last Quarter

Hourly Weather History & Observations

Time (EST) Temp. Windchill Dew Point Humidity Pressure Visibility Wind Dir Wind Speed Gust Speed Precip Events Conditions
12:54 AM 42.1 °F 37.7 °F 30.0 °F 62% 30.17 in 8.0 mi NNE 6.9 mph - N/A   Overcast
1:06 AM 42.1 °F 37.7 °F 30.9 °F 65% 30.16 in 9.0 mi North 6.9 mph - N/A   Overcast
1:14 AM 42.1 °F 36.6 °F 30.9 °F 65% 30.16 in 9.0 mi North 9.2 mph - N/A   Overcast
2:54 AM 42.1 °F 36.6 °F 30.9 °F 65% 30.19 in 9.0 mi North 9.2 mph - N/A   Overcast
3:44 AM 42.1 °F 36.1 °F 32.0 °F 67% 30.17 in 8.0 mi NNW 10.4 mph - N/A   Overcast
3:54 AM 42.1 °F 37.1 °F 30.9 °F 65% 30.19 in 8.0 mi NNW 8.1 mph - N/A   Overcast
4:54 AM 42.1 °F 37.1 °F 30.9 °F 65% 30.20 in 9.0 mi North 8.1 mph - N/A   Overcast
5:54 AM 42.1 °F 36.6 °F 30.9 °F 65% 30.22 in 9.0 mi NNW 9.2 mph - N/A   Overcast
6:54 AM 42.1 °F 38.4 °F 30.9 °F 65% 30.22 in 8.0 mi NW 5.8 mph - N/A   Overcast
7:54 AM 42.1 °F 39.2 °F 30.9 °F 65% 30.22 in 7.0 mi NNE 4.6 mph - N/A   Overcast
8:54 AM 42.1 °F 37.1 °F 30.9 °F 65% 30.23 in 8.0 mi NW 8.1 mph - N/A   Overcast
9:31 AM 44.1 °F 39.0 °F 30.9 °F 60% 30.22 in 9.0 mi WNW 9.2 mph - N/A   Scattered Clouds
10:54 AM 46.0 °F 44.8 °F 30.9 °F 56% 30.20 in 10.0 mi Variable 3.5 mph - N/A   Clear
11:54 AM 48.0 °F - 30.0 °F 50% 30.17 in 10.0 mi Calm Calm - N/A   Clear
12:54 PM 50.0 °F - 30.9 °F 48% 30.13 in 10.0 mi East 3.5 mph - N/A   Clear
1:54 PM 51.1 °F - 30.9 °F 46% 30.10 in 10.0 mi Variable 6.9 mph - N/A   Clear
2:54 PM 51.1 °F - 30.9 °F 46% 30.08 in 10.0 mi West 9.2 mph - N/A   Clear
3:54 PM 48.9 °F - 30.9 °F 50% 30.06 in 10.0 mi WSW 8.1 mph - N/A   Clear
4:54 PM 48.0 °F - 30.0 °F 50% 30.05 in 10.0 mi Calm Calm - N/A   Clear
5:54 PM 46.9 °F - 30.0 °F 52% 30.04 in 10.0 mi Calm Calm - N/A   Clear
6:54 PM 46.0 °F 43.9 °F 30.9 °F 56% 30.02 in 10.0 mi WSW 4.6 mph - N/A   Overcast
7:54 PM 46.9 °F - 30.9 °F 54% 30.00 in 9.0 mi SSW 5.8 mph - N/A   Mostly Cloudy
8:54 PM 46.9 °F - 30.0 °F 52% 29.97 in 9.0 mi SW 8.1 mph - N/A   Overcast
9:54 PM 46.9 °F - 30.0 °F 52% 29.93 in 9.0 mi SW 8.1 mph - N/A   Clear
10:54 PM 46.9 °F - 30.0 °F 52% 29.93 in 9.0 mi SSW 6.9 mph - N/A   Partly Cloudy